Regional Weather Roundup
Issued by NWS

Home | Current Version | Previous Version | Graphics & Text | Print | Product List | Glossary On
Versions: 1 2 3 4 5 6 7 8 9 10 11 12 13 14 15 16 17 18 19 20 21 22 23 24 25 26 27 28 29 30 31 32 33 34 35 36 37 38 39 40 41 42 43 44 45 46 47 48 49 50
000
ASUS43 KFSD 220810
RWRSD

WEATHER ROUNDUP FOR SOUTH DAKOTA
NATIONAL WEATHER SERVICE SIOUX FALLS SD
300 AM CDT FRI MAY 22 2015

NOTE: "FAIR" INDICATES FEW OR NO CLOUDS BELOW 12,000 FEET WITH NO
SIGNIFICANT WEATHER AND/OR OBSTRUCTIONS TO VISIBILITY.


SDZ001>005-009-010-012>017-220900-
NORTHWEST AND NORTH CENTRAL SOUTH DAKOTA

CITY           SKY/WX    TMP DP  RH WIND       PRES   REMARKS
BUFFALO          N/A     44  31  60 SE9       30.06S
FAITH            N/A     47  31  53 S10       30.14S
MOBRIDGE       CLEAR     50  40  68 NE6       30.12S
$$

SDZ012>016-024>037-041>051-057-063-072>074-220900-
SOUTHWEST AND SOUTH CENTRAL SOUTH DAKOTA

CITY           SKY/WX    TMP DP  RH WIND       PRES   REMARKS
RAPID CTY ARPT CLOUDY    48  44  86 E5        30.10F
PIERRE         CLEAR     45  36  70 CALM      30.14S
CUSTER         CLOUDY    45  40  82 S5        30.13F
ELLSWORTH AFB  CLOUDY    50  44  81 SE8       30.09F
PHILIP         CLEAR     49  35  58 SE6       30.12F
PINE RIDGE     CLOUDY    53  43  68 SE10      30.11F
SPEARFISH      FAIR      39  37  93 S3        30.09F
WINNER         FAIR      52  34  50 SW9       30.16F
$$

SDZ004>011-016>023-039-040-220900-
NORTHEAST SOUTH DAKOTA

CITY           SKY/WX    TMP DP  RH WIND       PRES   REMARKS
ABERDEEN       CLEAR     48  38  68 E8        30.15S
WATERTOWN      CLEAR     43  36  76 SW10      30.17R
BROOKINGS      CLEAR     46  37  71 CALM      30.18F
SISSETON         N/A     43  38  82 CALM      30.15S
$$

SDZ017-020-022-023-036>040-048>070-220900-
SOUTHEAST SOUTH DAKOTA

CITY           SKY/WX    TMP DP  RH WIND       PRES   REMARKS
SIOUX FALLS    CLEAR     47  40  76 CALM      30.17R
HURON          CLEAR     45  41  86 CALM      30.16R
CHAMBERLAIN    CLEAR     46  37  70 SW3       30.17S
MITCHELL       CLEAR     51  40  65 SW6       30.17S
YANKTON        CLEAR     48  39  71 CALM      30.18S
$$

ABBREVIATIONS USED IN REMARKS
   TC - TEMPERATURE IN CELSIUS
  WCI - WIND CHILL INDEX
   HX - HEAT INDEX
  VSB - VISIBILITY



USA.gov is the U.S. government's official web portal to all federal, state and local government web resources and services.